Location: Alsip
(41.6689°N, 87.7387°W)
Time: 14:16:12
(UTC+00:00)

Helios 1A - Pass Details

Date: 14 July 2020
Orbit: 587 x 600 km, 98.2° (Epoch: 01 August)

Event Time Altitude Azimuth Distance (km) Brightness Sun altitude
Exits shadow 05:28:40 42° 50° (NE) 851 3.9 -26.4°
Drops below altitude 10° 05:32:07 10° 0° (N) 1,925 6.6 -26.5°
Sets 05:34:21 0° 354° (N) 2,832 7.8 -26.5°
